Probability
3 2 1 0 0 0 0 0 0 0 0 0 0 0 0 0 0 0 0 0 1 5 15 25 30 34 41 48 49 44 38 35 30 27 27 24 16 9 7 6 6 4 2 0 0 0 0 0 0
2 1 0 0 0 0 0 0 0 0 0 0 0 0 0 0 0 0 0 1 3 8 17 25 29 34 42 50 50 45 39 35 30 27 26 22 16 11 8 7 6 5 3 2 1 1 1 0 0
1 0 0 0 0 0 0 0 0 0 0 0 0 0 0 0 0 0 1 3 9 15 21 26 29 33 42 49 49 43 40 37 32 27 26 23 17 13 11 9 8 7 6 5 3 2 2 1 0
0 0 0 0 0 0 0 0 0 0 0 0 0 0 0 0 0 1 4 9 15 20 24 28 30 33 40 45 44 41 40 39 34 28 27 25 19 16 15 13 10 9 9 6 5 4 3 1 0
0 0 0 0 0 0 0 0 0 0 0 0 0 0 0 0 1 4 9 15 19 21 24 27 28 32 38 42 43 42 42 42 37 31 29 25 20 18 17 15 13 11 9 7 6 4 2 1 0
1 1 1 0 0 0 0 0 0 0 0 0 0 0 0 1 5 8 12 16 19 20 21 25 28 32 38 43 44 44 45 43 39 35 31 26 21 19 17 16 14 11 9 7 5 4 1 0 0
1 1 1 0 0 0 0 0 0 0 0 0 0 0 0 2 6 10 13 16 18 18 20 24 27 30 34 40 43 43 44 43 39 35 32 28 23 20 18 16 14 12 9 6 4 2 1 0 0
0 0 0 0 0 0 0 0 0 0 0 0 0 0 0 2 6 10 13 16 17 18 21 25 25 26 27 31 35 37 37 38 36 32 28 24 21 19 17 15 14 12 9 6 3 1 0 0 0
0 0 0 0 0 0 0 0 0 0 0 0 0 0 1 4 8 11 13 14 16 17 22 25 24 23 23 24 25 27 29 30 29 26 20 15 14 14 12 11 11 10 8 5 3 1 0 0 0
0 0 0 0 0 0 0 0 0 0 0 0 0 0 2 6 11 13 13 14 15 17 21 24 24 23 23 21 18 20 22 23 22 18 13 10 10 10 9 7 7 6 5 3 1 1 0 0 0
0 0 0 0 0 0 0 0 0 0 0 0 0 0 3 7 12 14 15 14 14 17 18 18 20 22 22 17 15 16 18 18 17 15 11 10 9 8 7 6 5 3 2 1 0 0 0 0 0
0 0 0 0 0 0 0 0 0 0 0 0 0 1 4 7 11 15 17 15 13 14 14 13 13 17 18 15 13 14 16 17 16 13 11 10 9 8 7 6 4 3 1 0 0 0 0 0 0
0 0 0 0 0 0 0 0 0 0 0 0 0 2 5 7 10 14 18 17 14 12 11 10 10 11 12 13 13 13 14 15 15 12 10 10 9 8 7 6 5 3 1 0 0 0 0 0 0
0 0 0 0 0 0 0 0 0 0 0 0 0 2 5 7 10 13 16 18 15 12 11 10 9 8 8 9 11 12 13 14 13 12 10 10 9 8 7 6 5 3 1 0 0 0 0 0 0
0 0 0 0 0 0 0 0 0 0 0 0 0 1 3 6 8 11 14 17 16 13 11 10 10 8 6 6 8 11 13 13 12 11 10 10 10 9 8 6 4 2 0 0 0 0 0 0 0
0 0 0 0 0 0 0 0 0 0 0 0 0 1 2 4 6 9 12 16 16 13 11 10 9 9 7 5 6 10 11 11 11 11 11 10 10 9 8 7 4 1 0 0 0 0 0 0 0
0 0 0 0 0 0 0 0 0 0 0 0 0 0 1 2 4 7 9 12 13 13 11 10 8 8 8 7 7 9 9 9 10 11 11 10 10 9 8 7 5 2 0 0 0 0 0 0 0
0 0 0 0 0 0 0 0 0 0 0 0 0 0 0 1 2 4 6 8 11 13 12 9 7 7 9 10 9 7 6 6 7 9 11 10 10 9 8 6 4 1 0 0 0 0 0 0 0
0 0 0 0 0 0 0 0 0 0 0 0 0 0 0 0 1 2 4 6 9 12 12 9 7 7 9 12 11 8 4 4 5 7 9 9 10 9 7 6 4 1 0 0 0 0 0 0 0
0 0 0 0 0 0 0 0 0 0 0 0 0 0 0 0 0 1 3 4 7 10 11 10 8 6 8 11 11 8 5 4 5 6 7 9 10 9 7 6 4 1 0 0 0 0 0 0 0
0 0 0 0 0 0 0 0 0 0 0 0 0 0 0 0 0 1 2 3 5 8 10 10 8 7 7 8 8 8 7 6 6 6 7 8 9 8 7 6 4 2 0 0 0 0 0 0 0
0 0 0 0 0 0 0 0 0 0 0 0 0 0 0 0 0 0 1 3 4 6 8 9 8 7 6 6 6 7 8 8 7 7 6 7 7 7 6 5 4 2 1 0 0 0 0 0 0
0 0 0 0 0 0 0 0 0 0 0 0 0 0 0 0 0 0 1 2 4 6 8 9 9 7 6 6 6 7 7 7 8 7 5 5 5 6 6 4 3 3 2 1 0 0 0 0 0
0 0 0 0 0 0 0 0 0 0 0 0 0 0 0 0 0 0 1 2 4 6 8 9 8 5 4 5 5 5 5 5 5 6 5 4 3 4 5 4 3 3 3 1 0 0 0 0 0
0 0 0 0 0 0 0 0 0 0 0 0 0 0 0 0 0 0 1 2 4 6 8 8 6 3 3 3 3 3 3 2 2 4 4 4 4 4 4 3 3 3 2 1 0 0 0 0 0
0 0 0 0 0 0 0 0 0 0 0 0 0 0 0 0 0 0 1 2 4 6 7 6 4 2 1 2 1 1 1 1 1 3 4 5 4 4 4 4 4 3 1 1 0 0 0 0 0
0 0 0 0 0 0 0 0 0 0 0 0 0 0 0 0 0 0 1 2 4 6 6 6 5 3 1 0 0 0 1 1 2 3 4 4 4 4 4 5 5 3 1 0 0 0 0 0 0
0 0 0 0 0 0 0 0 0 0 0 0 0 0 0 0 0 0 0 1 3 5 6 6 6 5 2 0 1 1 2 2 2 2 2 2 3 3 4 4 4 3 1 0 0 0 0 0 0
0 0 0 0 0 0 0 0 0 0 0 0 0 0 0 0 0 0 0 0 1 3 6 6 6 5 3 2 2 2 2 2 1 1 1 1 1 2 3 3 2 2 1 0 0 0 0 0 0
0 0 0 0 0 0 0 0 0 0 0 0 0 0 0 0 0 0 0 0 0 2 5 6 6 5 3 3 3 3 2 1 0 0 1 1 1 1 2 2 2 2 1 1 0 0 0 0 0
Wind_Speed
5 2 2 3 3 1 7 7 5 4 4 5 4 3 5 5 4 4 1 8 11 14 14 17 19 19 18 18 18 18 18 18 17 17 17 17 17 17 16 16 15 15 15 15 15 15 15 15 15
2 1 3 3 3 6 8 7 8 9 7 3 2 1 1 3 2 4 4 8 14 15 13 14 18 18 18 18 18 19 18 18 18 17 17 17 17 17 16 16 15 15 15 15 15 15 15 15 14
2 1 2 2 6 10 8 6 9 9 8 5 3 2 2 3 3 5 5 12 13 13 12 14 19 19 18 19 19 19 18 18 18 18 18 17 17 17 16 16 15 15 15 15 14 14 15 14 13
1 2 1 4 14 11 7 4 3 5 6 4 2 3 2 2 3 4 8 12 13 12 11 14 19 20 19 19 19 19 18 18 18 18 17 17 17 17 16 15 15 15 14 15 14 14 14 14 13
2 2 3 9 15 8 5 7 6 8 6 5 2 3 3 4 1 6 10 12 13 11 11 14 19 20 19 19 19 18 18 18 18 17 17 17 17 17 16 15 15 15 15 15 15 14 14 13 12
1 1 6 12 13 7 6 6 7 9 8 6 3 3 4 2 5 6 7 9 11 12 11 13 19 19 19 19 19 19 19 19 18 18 18 17 17 17 17 16 15 15 15 15 15 14 13 13 12
3 3 8 10 9 8 7 5 5 6 8 7 2 2 4 2 1 4 4 6 7 9 10 10 12 14 17 18 18 18 18 18 18 18 17 17 16 17 17 16 16 16 15 15 14 14 13 12 11
3 2 8 8 10 9 4 4 5 6 9 5 1 3 4 5 2 2 3 4 6 7 8 8 9 10 10 12 16 17 17 17 17 16 15 15 15 15 16 15 15 16 15 14 14 13 12 11 10
2 4 10 9 8 6 4 5 6 6 6 5 4 5 7 4 2 3 3 2 4 6 6 7 8 9 9 9 12 14 15 15 15 13 14 13 8 8 10 11 14 15 15 14 13 13 11 9 8
3 7 10 6 6 7 8 8 8 6 9 8 8 8 3 4 6 6 7 7 7 8 8 7 8 9 9 9 8 7 8 9 9 8 9 7 6 6 8 11 13 14 13 13 13 12 9 6 3
5 8 6 7 8 9 11 11 7 7 12 10 8 8 5 5 7 8 9 10 10 9 9 9 9 9 9 7 6 5 4 6 7 9 9 7 6 5 5 5 7 7 8 6 7 6 3 3 2
5 8 8 7 7 9 11 9 9 10 14 10 9 8 8 9 10 11 11 10 9 9 10 10 10 9 9 8 7 7 6 6 6 8 10 8 5 5 5 4 5 4 3 4 4 3 3 3 3
6 7 8 9 10 11 12 12 12 14 15 12 10 9 10 11 11 10 10 10 9 10 11 11 11 11 9 8 7 8 8 8 8 8 9 10 8 7 6 5 5 5 4 5 4 4 4 4 3
5 7 9 11 12 10 12 14 10 14 11 10 10 11 10 12 12 9 9 9 10 11 11 11 12 12 10 9 8 8 8 8 8 8 10 12 9 8 8 7 6 6 5 5 5 6 5 4 3
4 7 10 9 9 7 6 11 12 14 9 11 12 12 12 12 12 12 12 12 12 12 11 12 12 12 12 11 10 9 8 9 9 9 11 12 11 10 9 8 7 7 6 6 5 5 4 4 3
3 4 6 6 5 5 4 13 11 9 8 13 13 12 12 12 13 12 12 11 11 11 11 11 11 11 12 11 10 8 9 9 9 9 10 13 13 12 10 8 8 7 6 6 6 5 4 4 4
2 4 6 8 5 4 5 12 11 9 9 13 13 12 11 11 11 11 10 10 10 10 10 11 11 12 12 11 9 9 9 10 9 9 9 11 14 14 11 9 8 9 7 6 7 5 5 5 4
5 6 6 9 6 6 10 15 16 11 10 11 11 10 9 9 11 10 9 9 9 9 9 9 9 10 10 9 7 6 8 8 8 9 10 13 12 14 11 9 10 10 8 7 7 7 5 5 5
6 8 12 13 10 9 13 17 18 14 10 9 9 9 9 10 10 8 8 8 7 7 8 9 9 9 8 7 8 8 8 8 8 9 11 13 13 14 12 9 10 10 9 9 9 6 7 4 4
7 10 12 12 7 9 12 17 15 12 10 9 9 9 9 9 6 6 6 6 7 8 8 8 9 9 9 8 8 7 7 7 8 8 10 12 14 14 13 12 11 10 9 10 10 8 5 4 5
8 9 9 10 10 6 8 11 8 8 7 7 7 7 7 8 7 6 6 7 7 8 9 9 10 9 9 8 5 4 3 4 6 8 9 11 13 14 13 14 12 12 11 10 11 11 9 6 5
8 8 9 9 7 5 2 9 8 6 7 7 7 7 7 8 6 6 6 6 6 8 8 8 9 8 8 9 7 9 9 9 9 8 8 9 12 13 14 14 14 13 11 11 11 10 8 9 7
7 6 7 7 5 6 4 6 9 4 7 8 7 7 7 7 5 5 5 6 6 6 6 7 7 7 8 9 10 9 8 7 6 7 9 10 10 12 13 14 14 14 11 12 12 10 9 8 8
3 4 4 2 0 5 5 6 8 4 7 6 5 5 5 4 4 4 3 3 3 3 3 4 5 6 6 8 9 10 9 8 8 9 10 9 8 9 13 13 13 14 12 13 12 12 12 10 9
1 2 4 5 2 7 3 5 9 7 6 6 6 5 4 2 2 3 3 2 2 2 3 3 5 6 6 7 9 10 10 10 12 12 11 10 8 9 12 12 12 12 12 12 12 12 12 12 11
2 4 3 3 5 6 4 7 7 7 6 4 3 3 3 3 2 3 3 3 3 3 3 3 5 6 6 7 8 8 9 8 8 11 10 11 10 10 12 13 13 13 13 13 12 11 12 11 11
2 3 4 3 3 5 6 6 7 5 6 5 5 4 4 4 4 3 3 4 4 4 4 4 5 6 6 7 7 7 8 8 8 8 10 10 9 9 12 13 13 13 13 14 13 11 12 11 11
4 3 2 2 3 6 7 6 5 6 5 6 5 4 4 4 5 4 3 4 4 4 4 4 5 5 5 5 5 5 7 8 8 7 9 10 11 10 11 12 13 13 13 14 14 11 11 12 11
3 2 3 3 4 4 6 7 4 4 3 3 4 5 5 5 6 5 4 4 4 3 3 3 4 4 4 4 4 5 6 7 7 7 9 10 10 11 12 13 13 13 13 14 14 14 13 14 13
5 6 5 4 6 5 5 10 4 3 3 3 5 6 6 5 6 5 5 5 5 4 4 3 3 3 3 4 4 5 5 6 7 8 8 9 10 10 11 12 13 13 13 13 15 15 15 15 15
Wind_Direction
327 5 76 68 70 211 237 235 229 245 248 234 224 179 174 188 184 214 169 143 141 153 165 166 164 163 162 159 156 153 150 148 146 145 143 141 139 139 137 136 134 133 130 126 123 122 120 117 113
330 50 70 82 159 221 244 224 228 237 240 278 280 227 202 229 208 147 142 159 149 155 163 165 165 164 163 160 157 155 153 152 151 148 146 144 143 142 141 138 136 132 130 127 125 123 121 119 116
310 161 123 154 204 214 226 219 223 247 260 269 285 287 212 204 179 177 178 153 149 156 162 165 166 166 165 162 160 157 156 156 154 151 150 148 147 145 143 140 138 134 131 130 128 127 126 123 119
51 79 107 214 232 227 223 247 262 280 290 272 259 295 279 257 186 183 148 146 150 157 160 165 167 168 167 165 162 160 159 159 157 155 154 152 150 148 145 143 141 138 136 134 133 132 131 128 123
68 118 215 236 240 240 244 266 285 281 276 281 282 255 275 309 114 132 141 149 153 159 163 167 169 171 170 169 166 163 163 162 160 159 157 155 153 151 148 146 145 143 142 140 139 137 137 134 128
88 146 214 236 242 245 248 256 270 268 271 283 291 266 263 298 101 134 147 153 158 161 167 170 172 173 173 171 169 167 166 164 163 162 160 159 157 154 152 151 150 148 147 145 144 142 143 139 130
155 198 233 242 253 253 247 245 243 261 271 269 250 250 277 288 145 137 144 150 154 159 163 170 172 174 174 173 171 170 169 167 166 165 162 160 159 158 157 157 155 152 150 149 149 149 148 143 134
163 208 247 244 249 252 254 258 245 255 263 273 241 202 243 261 277 119 125 145 152 158 166 170 172 173 174 174 173 173 172 170 168 167 162 159 159 159 157 156 156 155 154 154 154 154 153 147 138
140 222 238 238 245 260 296 294 282 278 269 276 260 234 245 215 174 128 134 164 169 166 171 171 173 174 172 174 176 172 172 172 169 165 161 156 155 154 154 155 158 159 157 158 158 159 157 150 141
176 227 239 246 260 280 289 283 287 299 287 284 296 299 280 181 177 176 183 195 196 188 183 177 178 176 173 177 174 172 171 170 167 162 159 155 152 154 155 159 161 161 160 162 162 163 160 143 126
207 230 253 265 272 278 280 279 275 271 271 263 268 280 265 239 212 202 199 198 205 196 187 184 182 180 179 177 171 172 167 166 166 163 161 155 151 154 152 154 159 158 157 155 157 152 145 142 143
250 255 259 266 276 277 273 276 277 256 259 264 257 247 237 239 230 219 209 206 205 205 200 189 184 181 184 180 178 174 171 173 174 172 167 161 160 162 162 161 159 158 156 155 151 150 157 161 164
256 272 272 273 277 271 275 266 269 266 269 274 269 256 236 235 235 232 220 210 207 206 208 197 188 185 185 182 183 181 180 179 178 177 175 169 168 171 169 169 167 167 163 165 165 164 168 170 169
261 281 287 279 274 269 264 269 263 264 271 274 268 259 247 238 232 233 226 218 214 212 210 201 194 189 186 188 189 186 185 182 180 182 180 176 174 174 173 173 173 175 174 174 173 172 170 173 168
294 295 291 270 258 259 266 269 245 258 273 275 270 262 257 248 239 228 222 220 216 214 210 204 199 192 188 191 193 190 187 184 186 187 184 181 178 177 175 176 178 181 177 173 169 169 160 166 167
311 290 283 273 256 252 230 261 257 265 269 269 268 266 261 255 242 236 227 224 219 215 211 209 205 197 194 192 195 193 190 189 189 187 186 185 183 179 176 177 181 179 174 171 170 169 162 169 165
295 277 275 290 261 246 229 263 271 277 271 266 267 266 265 264 252 243 233 223 216 212 209 209 202 199 197 195 196 197 192 193 192 188 187 187 185 182 179 180 179 175 174 174 176 172 165 167 167
253 267 274 279 276 272 267 270 280 279 269 265 267 266 266 265 257 248 239 229 220 212 208 207 200 199 196 193 192 199 197 193 192 192 192 186 187 183 181 180 178 175 174 177 175 170 170 167 165
252 269 277 276 278 276 267 273 279 279 274 266 268 264 261 265 255 241 234 230 223 211 208 208 199 199 191 190 189 197 201 194 193 196 194 189 187 184 183 181 179 179 180 181 175 167 168 168 150
259 275 278 284 280 279 276 276 274 268 263 257 255 262 261 270 278 256 239 232 221 211 206 208 198 200 199 198 198 198 197 197 195 193 194 192 188 186 188 183 181 182 180 179 179 167 164 170 168
258 254 267 281 305 288 289 285 266 273 263 265 256 253 262 263 266 261 245 233 226 220 213 216 203 200 204 197 192 193 188 190 191 194 195 196 192 189 190 187 183 184 183 185 185 178 172 175 184
264 246 262 281 303 293 298 292 280 277 283 274 268 265 263 265 264 261 253 241 230 226 220 218 206 202 205 192 189 194 199 203 202 191 192 194 196 192 192 190 186 185 187 186 187 185 179 171 180
247 264 270 275 273 284 257 257 285 304 288 281 272 266 266 264 262 264 251 238 231 226 220 212 206 207 207 198 196 199 211 211 199 188 189 192 197 197 194 193 189 188 189 189 187 184 183 182 182
263 325 314 322 23 273 239 226 280 267 261 280 292 288 280 272 269 271 261 248 248 247 231 205 202 218 214 204 198 202 208 209 196 197 196 197 197 201 198 194 194 191 190 190 190 189 187 189 187
55 39 352 346 336 255 258 241 256 269 273 261 272 283 294 297 304 308 295 276 268 272 243 216 207 221 221 209 203 209 210 214 209 202 200 200 199 204 201 195 197 195 192 190 188 190 192 191 190
217 155 178 242 255 283 287 248 257 279 298 299 294 295 313 325 333 327 298 276 258 257 241 224 222 225 223 215 211 214 215 219 221 211 204 204 206 207 201 198 199 199 194 191 190 193 195 193 196
194 212 203 202 274 279 268 278 297 309 330 337 342 348 336 321 324 321 313 306 284 257 243 228 224 230 229 220 216 216 221 220 220 218 211 208 207 205 203 200 199 200 196 195 190 197 197 194 198
191 179 121 174 253 268 277 270 270 296 315 334 343 340 324 320 324 323 317 312 304 282 248 235 227 226 231 223 215 222 224 225 217 211 219 214 208 206 204 205 201 200 198 195 194 195 196 197 200
199 191 188 204 219 235 273 268 241 248 272 295 313 327 328 320 316 314 317 323 315 315 303 253 238 233 231 233 236 230 230 226 218 216 219 221 213 206 207 208 204 202 200 197 197 199 196 200 201
212 207 185 206 246 231 251 270 269 256 267 290 311 322 328 323 321 324 329 333 334 329 324 307 282 257 246 237 238 240 239 232 222 223 225 222 215 208 209 208 206 205 202 200 199 201 200 201 202